Grand Marais, MN

7:11 PM CST on December 14, 2017 (GMT -0600)
Grand Marais

Weather History for KGNA - March, 2013

Change the Weather History Date:

Thursday, March 28, 2013

  Actual Average (KCKC) Record (KCKC)
Temperature  
Mean Temperature 34 °F -  
Max Temperature 42 °F 35 °F 57 °F (1998)
Min Temperature 28 °F 19 °F -5 °F (2011)
Degree Days  
Heating Degree Days 30    
Moisture  
Dew Point 21 °F    
Average Humidity 57    
Maximum Humidity 72    
Minimum Humidity 41    
Precipitation  
Precipitation 0.00 in - - ()
Sea Level Pressure  
Sea Level Pressure 30.32 in    
Wind  
Wind Speed 8 mph (WNW)    
Max Wind Speed 13 mph    
Max Gust Speed 22 mph    
Averages and records for this station are not official NWS values.
T = Trace of Precipitation, MM = Missing Value Source: NWS Daily Summary

Daily Weather History Graph

Daily Weather History Graph

Search for Another Location

Airport or City:

Trip Planner

Search our weather history database for the weather conditions in past years. The results will help you decide how hot, cold, wet, or windy it might be!

Date:

Astronomy

Mar. 28, 2013 Rise Set
Actual Time 6:47 AM CDT 7:26 PM CDT
Civil Twilight 6:16 AM CDT 7:57 PM CDT
Nautical Twilight 5:39 AM CDT 8:34 PM CDT
Astronomical Twilight 5:00 AM CDT 9:13 PM CDT
Moon 9:29 PM CDT (3/28) 7:07 AM CDT (3/28)
Length of Visible Light 13h 40m
Length of Day
12h 38m
Full, 98% of the Moon is Illuminated
Mar 28
Full
Apr 2
Last Quarter
Apr 10
New
Apr 18
First Quarter
Apr 25
Full

Hourly Weather History & Observations

Time (CDT) Temp. Windchill Dew Point Humidity Pressure Visibility Wind Dir Wind Speed Gust Speed Precip Events Conditions
12:56 AM 35.1 °F 26.9 °F 15.1 °F 44% 30.30 in - NNW 11.5 mph 21.9 mph N/A   Unknown
1:56 AM 34.0 °F 26.0 °F 15.1 °F 46% 30.31 in - NNW 10.4 mph - N/A   Unknown
2:56 AM 34.0 °F 25.5 °F 15.1 °F 46% 30.31 in - North 11.5 mph 17.3 mph N/A   Unknown
3:56 AM 34.0 °F 26.0 °F 15.1 °F 46% 30.31 in - North 10.4 mph - N/A   Unknown
4:56 AM 34.0 °F 26.6 °F 15.1 °F 46% 30.31 in - North 9.2 mph - N/A   Unknown
5:56 AM 35.1 °F 27.9 °F 16.0 °F 46% 30.31 in - North 9.2 mph - N/A   Unknown
6:56 AM 35.1 °F 27.4 °F 16.0 °F 46% 30.32 in - NNW 10.4 mph - N/A   Unknown
7:56 AM 35.1 °F 26.4 °F 16.0 °F 46% 30.33 in - NNW 12.7 mph 18.4 mph N/A   Unknown
8:56 AM 37.9 °F 31.5 °F 16.0 °F 41% 30.33 in - NNW 9.2 mph 16.1 mph N/A   Unknown
9:56 AM 37.9 °F 32.1 °F 23.0 °F 55% 30.34 in - South 8.1 mph - N/A   Unknown
10:56 AM 39.9 °F 35.8 °F 23.0 °F 51% 30.35 in - SW 5.8 mph - N/A   Unknown
11:56 AM 41.0 °F 38.0 °F 24.1 °F 51% 30.34 in - WSW 4.6 mph - N/A   Unknown
12:56 PM 39.0 °F 35.7 °F 21.9 °F 50% 30.34 in - SW 4.6 mph - N/A   Unknown
1:56 PM 37.9 °F 33.5 °F 28.9 °F 70% 30.33 in - WSW 5.8 mph - N/A   Unknown
2:56 PM 37.0 °F 32.4 °F 25.0 °F 62% 30.32 in - SW 5.8 mph - N/A   Unknown
3:56 PM 37.0 °F 32.4 °F 26.1 °F 65% 30.31 in - SW 5.8 mph - N/A   Unknown
4:56 PM 39.9 °F 36.7 °F 28.0 °F 63% 30.30 in - WSW 4.6 mph - N/A   Unknown
5:56 PM 37.0 °F 32.4 °F 27.0 °F 67% 30.30 in - WSW 5.8 mph - N/A   Unknown
6:56 PM 35.1 °F 29.3 °F 27.0 °F 72% 30.30 in - WSW 6.9 mph - N/A   Unknown
7:56 PM 30.9 °F - 23.0 °F 72% 30.31 in - Calm Calm - N/A   Unknown
8:56 PM 28.9 °F - 21.0 °F 72% 30.31 in - Calm Calm - N/A   Unknown
9:56 PM 30.0 °F - 18.0 °F 61% 30.30 in - Calm Calm - N/A   Unknown
10:56 PM 28.0 °F - 19.0 °F 69% 30.30 in - Calm Calm - N/A   Unknown
11:56 PM 28.0 °F - 19.9 °F 72% 30.30 in - Calm Calm - N/A   Unknown